CW4549 Weather Reports


Display with metric or nautical units.
time (UTC)temp
F
wind
direction
speed
MPH
gust
MPH
rain 1hr
in
rain 24hr
in
rain mn
in
humidity
%
barometer
mb
20260902203017 95 158 1.0 8.0 0.00 0.00 0.00 49 1011.0
20260902201519 95 158 1.0 8.0 0.00 0.00 0.00 52 1011.2
20260902200017 95 158 1.0 5.0 0.00 0.00 0.00 52 1011.2
20260902194517 95 158 1.0 8.0 0.00 0.00 0.00 50 1011.4
20260902193017 95 158 1.0 6.0 0.00 0.00 0.00 52 1011.6
20260902191559 95 0.0 3.0 0.00 0.00 0.00 51 1011.8
20260902190017 94 158 1.0 7.0 0.00 0.00 0.00 52 1012.0
20260902184537 95 0.0 6.0 0.00 0.00 0.00 50 1012.0
20260902183018 95 158 1.0 10.0 0.00 0.00 0.00 52 1012.1
20260902181542 95 158 1.0 8.0 0.00 0.00 0.00 52 1012.2
20260902180017 94 0.0 5.0 0.00 0.00 0.00 53 1012.4
20260902174518 94 0.0 4.0 0.00 0.00 0.00 53 1012.4
20260902173017 94 0.0 7.0 0.00 0.00 0.00 53 1012.7
20260902171517 92 0.0 3.0 0.00 0.00 0.00 58 1012.8
20260902170017 94 0.0 3.0 0.00 0.00 0.00 59 1012.7
20260902164517 94 158 1.0 6.0 0.00 0.00 0.00 58 1012.8
20260902163037 93 0.0 5.0 0.00 0.00 0.00 61 1012.9
20260902161519 92 158 2.0 10.0 0.00 0.00 0.00 62 1013.0
20260902160018 92 0.0 6.0 0.00 0.00 0.00 61 1013.0
20260902154517 91 158 1.0 7.0 0.00 0.00 0.00 63 1013.1
20260902153017 90 158 1.0 7.0 0.00 0.00 0.00 64 1013.3
20260902151518 89 0.0 3.0 0.00 0.00 0.00 67 1013.3
20260902150019 88 0.0 6.0 0.00 0.00 0.00 67 1013.3
20260902144517 87 0.0 6.0 0.00 0.00 0.00 69 1013.3
20260902143037 86 0.0 3.0 0.00 0.00 0.00 73 1013.3
20260902141558 84 0.0 1.0 0.00 0.00 0.00 77 1013.3
20260902140015 83 0.0 7.0 0.00 0.00 0.00 80 1013.4
20260902134516 82 0.0 4.0 0.00 0.00 0.00 80 1013.5
20260902133015 81 0.0 3.0 0.00 0.00 0.00 81 1013.5
20260902131515 80 0.0 3.0 0.00 0.00 0.00 83 1013.5
20260902130016 79 0.0 5.0 0.00 0.00 0.00 86 1013.4
20260902124517 78 0.0 1.0 0.00 0.00 0.00 89 1013.4
20260902123015 77 0.0 0.0 0.00 0.00 0.00 93 1013.3
20260902121515 76 0.0 0.0 0.00 0.00 0.00 95 1013.2
20260902120015 75 0.0 0.0 0.00 0.00 0.00 96 1013.0
20260902114515 75 0.0 0.0 0.00 0.00 0.00 97 1012.9
20260902113038 74 0.0 0.0 0.00 0.00 0.00 98 1012.8
20260902111515 74 0.0 0.0 0.00 0.00 0.00 99 1012.6
20260902110015 74 0.0 0.0 0.00 0.00 0.00 99 1012.6
20260902104517 74 0.0 0.0 0.00 0.00 0.00 99 1012.7
20260902103057 74 0.0 0.0 0.00 0.00 0.00 99 1012.6
20260902101516 74 0.0 0.0 0.00 0.00 0.00 99 1012.6
20260902100017 74 0.0 0.0 0.00 0.00 0.00 99 1012.4
20260902094516 74 0.0 0.0 0.00 0.00 0.00 99 1012.4
20260902093018 75 0.0 0.0 0.00 0.00 0.00 99 1012.4
20260902091516 75 0.0 0.0 0.00 0.00 0.00 99 1012.3
20260902090036 74 0.0 0.0 0.00 0.00 0.00 99 1012.2
20260902084516 74 0.0 0.0 0.00 0.00 0.00 99 1012.1
20260902083017 74 0.0 0.0 0.00 0.00 0.00 98 1011.8
20260902081516 74 0.0 0.0 0.00 0.00 0.00 98 1011.8
20260902080016 75 0.0 0.0 0.00 0.00 0.00 98 1011.7
20260902074517 75 0.0 0.0 0.00 0.00 0.00 97 1011.7
20260902073016 75 0.0 0.0 0.00 0.00 0.00 97 1011.7
20260902071517 75 0.0 0.0 0.00 0.00 0.00 96 1011.7
20260902070018 75 0.0 0.0 0.00 0.00 0.00 96 1011.7
20260902064517 75 0.0 0.0 0.00 0.00 0.00 95 1011.7
20260902063036 76 0.0 0.0 0.00 0.00 0.00 94 1011.7
20260902061517 76 0.0 0.0 0.00 0.00 0.00 94 1011.8
20260902060016 76 0.0 0.0 0.00 0.00 0.00 93 1011.7
20260902054516 77 0.0 0.0 0.00 0.00 0.00 91 1011.8
20260902053036 77 0.0 0.0 0.00 0.00 0.00 91 1011.8
20260902051516 77 0.0 0.0 0.00 0.00 0.00 90 1011.8
20260902050017 77 0.0 0.0 0.00 0.00 0.00 90 1011.8
20260902044516 78 0.0 0.0 0.00 0.00 0.00 90 1011.7
20260902043016 78 0.0 0.0 0.00 0.00 0.00 90 1011.7
20260902041516 78 0.0 0.0 0.00 0.00 0.00 90 1011.9
20260902040036 78 0.0 0.0 0.00 0.00 0.00 89 1011.9
20260902034517 79 0.0 0.0 0.00 0.00 0.00 87 1011.9
20260902033017 79 0.0 0.0 0.00 0.00 0.00 86 1011.8
20260902031516 80 0.0 0.0 0.00 0.00 0.00 84 1011.8
20260902030037 80 0.0 0.0 0.00 0.00 0.00 83 1011.7
20260902024516 80 0.0 0.0 0.00 0.00 0.00 83 1011.8
20260902023016 80 0.0 1.0 0.00 0.00 0.00 82 1011.7
20260902021516 80 0.0 1.0 0.00 0.00 0.00 83 1011.7
20260902020016 80 0.0 0.0 0.00 0.00 0.00 86 1011.8
20260902014637 80 0.0 0.0 0.00 0.00 0.00 86 1011.8
20260902013017 80 0.0 0.0 0.00 0.00 0.00 86 1011.6
20260902011516 81 0.0 0.0 0.00 0.00 0.00 85 1011.4
20260902010016 81 0.0 0.0 0.00 0.00 0.00 84 1011.3
20260902004538 82 0.0 0.0 0.00 0.00 0.00 83 1011.2
20260902003037 83 0.0 0.0 0.00 0.00 0.00 81 1011.1
20260902001539 84 0.0 0.0 0.00 0.00 0.00 77 1011.3
20260902000017 85 0.0 0.0 0.00 0.00 0.00 75 1011.4
20260901234517 87 0.0 0.0 0.00 0.00 0.00 72 1011.3
20260901233017 88 0.0 0.0 0.00 0.00 0.00 69 1011.5
20260901231517 89 0.0 1.0 0.00 0.00 0.00 62 1011.6
20260901230017 91 0.0 2.0 0.00 0.00 0.00 62 1011.7
20260901224517 91 0.0 2.0 0.00 0.00 0.00 58 1011.7
20260901223040 92 135 1.0 6.0 0.00 0.00 0.00 54 1011.5
20260901221557 92 0.0 5.0 0.00 0.00 0.00 55 1011.5
20260901220017 93 180 1.0 6.0 0.00 0.00 0.00 51 1011.3
20260901214517 93 0.0 4.0 0.00 0.00 0.00 51 1011.2
20260901213039 94 158 1.0 6.0 0.00 0.00 0.00 50 1011.2
20260901211519 94 158 1.0 8.0 0.00 0.00 0.00 53 1011.2
20260901210057 94 158 2.0 11.0 0.00 0.00 0.00 50 1011.3
20260901204517 95 158 1.0 8.0 0.00 0.00 0.00 50 1011.5